Date String (YYYY-MM-DD hh:mm:ss) UTC,Instrument flags,Ambient pressure (hPa),Sample flow (lpm),Bypass flow (lpm),Sample temperature (°C),Ambient temperature (°C),ASC tube jacket temperature (°C),LED temperature (°C),Box temperature (°C),Sample RH (%),Span deviation,Mass concentration (μg/m³),Mass concentration (μg/m³),Mass concentration (μg/m³)
DateTimeUTC,F1_M11,P_M11,Q1_M11,Q2_M11,T1_M11,T2_M11,T3_M11,T4_M11,T5_M11,U1_M11,ZSPAN_M11,X2_M11,X0_M11,X1_M11
2021-10-30 06:00:00,,0823.8,5.00,0.00,28.9,28.1,00.0,38.0,30.6,10.6,0000.0,0000.63,0001.59,0000.54
2021-10-30 06:01:00,,0823.8,5.01,0.00,28.9,28.1,00.0,38.0,30.6,10.6,0000.0,0000.65,0001.50,0000.54
2021-10-30 06:02:00,,0823.8,4.99,0.00,28.9,28.1,00.0,38.0,30.6,10.5,0000.0,0000.66,0000.98,0000.55
2021-10-30 06:03:00,,0823.8,5.00,0.00,28.9,28.1,00.0,38.0,30.6,10.6,0000.0,0000.67,0000.99,0000.55
2021-10-30 06:04:00,,0823.8,5.00,0.00,28.9,28.1,00.0,38.0,30.6,10.5,0000.0,0000.67,0001.00,0000.55
2021-10-30 06:05:00,,0823.8,5.01,0.00,28.9,28.0,00.0,38.0,30.6,10.4,0000.0,0000.66,0000.98,0000.55
2021-10-30 06:06:00,,0823.9,5.00,0.00,28.9,28.0,00.0,38.0,30.5,10.4,0000.0,0000.66,0000.98,0000.54
2021-10-30 06:07:00,,0823.8,5.01,0.00,28.9,28.0,00.0,38.0,30.6,10.4,0000.0,0000.66,0000.99,0000.54
2021-10-30 06:08:00,,0823.9,4.99,0.00,28.9,28.0,00.0,38.0,30.6,10.4,0000.0,0000.65,0000.96,0000.54
2021-10-30 06:09:00,,0823.9,5.00,0.00,28.9,28.0,00.0,38.0,30.6,10.4,0000.0,0000.64,0000.94,0000.54
2021-10-30 06:10:00,,0823.9,5.00,0.00,28.9,28.0,00.0,38.0,30.6,10.4,0000.0,0000.63,0000.92,0000.54
2021-10-30 06:11:00,,0823.8,5.01,0.00,28.9,28.0,00.0,38.0,30.6,10.3,0000.0,0000.65,0000.95,0000.55
2021-10-30 06:12:00,,0823.8,5.01,0.00,28.9,28.0,00.0,38.0,30.6,10.2,0000.0,0000.63,0000.90,0000.54
2021-10-30 06:13:00,,0823.8,5.00,0.00,28.9,28.0,00.0,38.0,30.6,10.3,0000.0,0000.64,0000.99,0000.54
2021-10-30 06:14:00,,0823.8,5.01,0.00,28.8,28.0,00.0,38.0,30.6,10.3,0000.0,0000.61,0000.97,0000.53
2021-10-30 06:15:00,,0823.8,5.00,0.00,28.8,28.0,00.0,38.0,30.6,10.3,0000.0,0000.62,0000.98,0000.53
2021-10-30 06:16:00,,0823.8,5.00,0.00,28.8,28.0,00.0,38.0,30.6,10.3,0000.0,0000.62,0000.97,0000.53
2021-10-30 06:17:00,,0823.8,4.99,0.00,28.8,28.0,00.0,38.0,30.6,10.3,0000.0,0000.61,0000.92,0000.53
2021-10-30 06:18:00,,0823.7,5.00,0.00,28.9,28.1,00.0,38.0,30.7,10.3,0000.0,0000.61,0000.94,0000.53
2021-10-30 06:19:00,,0823.7,5.00,0.00,28.9,28.1,00.0,38.0,30.7,10.2,0000.0,0000.61,0000.93,0000.52
2021-10-30 06:20:00,,0823.7,5.00,0.00,28.9,28.1,00.0,38.0,30.7,10.2,0000.0,0000.59,0000.92,0000.51
2021-10-30 06:21:00,,0823.7,5.01,0.00,28.9,28.1,00.0,38.0,30.7,10.2,0000.0,0000.59,0000.92,0000.51
2021-10-30 06:22:00,,0823.7,4.99,0.00,28.9,28.2,00.0,38.0,30.7,10.2,0000.0,0000.58,0000.90,0000.50
2021-10-30 06:23:00,,0823.6,5.00,0.00,28.9,28.2,00.0,38.0,30.8,10.2,0000.0,0000.59,0000.92,0000.50
2021-10-30 06:24:00,,0823.7,5.00,0.00,29.0,28.2,00.0,38.0,30.8,10.2,0000.0,0000.58,0000.83,0000.50
2021-10-30 06:25:00,,0823.7,5.01,0.00,29.0,28.2,00.0,38.0,30.8,10.2,0000.0,0000.58,0000.81,0000.50
2021-10-30 06:26:00,,0823.7,4.99,0.00,29.0,28.3,00.0,38.0,30.8,10.2,0000.0,0000.57,0000.81,0000.50
2021-10-30 06:27:00,,0823.7,4.99,0.00,29.0,28.3,00.0,38.0,30.8,10.2,0000.0,0000.56,0000.79,0000.50
2021-10-30 06:28:00,,0823.7,5.00,0.00,29.0,28.3,00.0,38.0,30.8,10.1,0000.0,0000.59,0000.85,0000.50
2021-10-30 06:29:00,,0823.7,5.01,0.00,29.1,28.3,00.0,38.0,30.8,10.1,0000.0,0000.60,0000.85,0000.50
2021-10-30 06:30:00,,0823.7,4.99,0.00,29.1,28.3,00.0,38.0,30.8,10.2,0000.0,0000.60,0000.84,0000.50
2021-10-30 06:31:00,,0823.7,5.00,0.00,29.1,28.3,00.0,38.0,30.9,10.2,0000.0,0000.62,0000.91,0000.50
2021-10-30 06:32:00,,0823.7,5.01,0.00,29.1,28.3,00.0,38.1,30.9,10.2,0000.0,0000.67,0001.06,0000.50
2021-10-30 06:33:00,,0823.7,4.99,0.00,29.1,28.3,00.0,38.1,30.9,10.1,0000.0,0000.68,0001.10,0000.50
2021-10-30 06:34:00,,0823.7,5.00,0.00,29.1,28.4,00.0,38.1,30.9,10.1,0000.0,0000.67,0001.06,0000.50
2021-10-30 06:35:00,,0823.7,4.99,0.00,29.1,28.4,00.0,38.1,30.9,10.1,0000.0,0000.66,0001.03,0000.50
2021-10-30 06:36:00,,0823.7,5.00,0.00,29.1,28.4,00.0,38.1,30.9,10.1,0000.0,0000.67,0001.04,0000.50
2021-10-30 06:37:00,,0823.7,5.00,0.00,29.1,28.4,00.0,38.1,30.9,10.1,0000.0,0000.69,0001.11,0000.51
2021-10-30 06:38:00,,0823.7,5.00,0.00,29.2,28.4,00.0,38.1,30.9,10.1,0000.0,0000.71,0001.18,0000.51
2021-10-30 06:39:00,,0823.7,5.01,0.00,29.2,28.4,00.0,38.1,31.0,10.0,0000.0,0000.72,0001.26,0000.51
2021-10-30 06:40:00,,0823.7,5.00,0.00,29.2,28.4,00.0,38.1,31.0,09.9,0000.0,0000.70,0001.87,0000.51
2021-10-30 06:41:00,,0823.7,5.00,0.00,29.2,28.4,00.0,38.2,31.0,09.9,0000.0,0000.73,0002.93,0000.51
2021-10-30 06:42:00,,0823.7,5.00,0.00,29.2,28.4,00.0,38.2,31.0,10.0,0000.0,0000.76,0003.16,0000.51
2021-10-30 06:43:00,,0823.7,5.00,0.00,29.2,28.4,00.0,38.2,31.0,09.8,0000.0,0000.76,0003.65,0000.52
2021-10-30 06:44:00,,0823.7,5.00,0.00,29.2,28.4,00.0,38.2,31.1,09.2,0000.0,0000.80,0003.70,0000.54
2021-10-30 06:45:00,,0823.8,4.99,0.00,29.2,28.4,00.0,38.2,31.0,09.3,0000.0,0000.85,0003.85,0000.55
2021-10-30 06:46:00,,0823.7,5.00,0.00,29.2,28.4,00.0,38.2,31.0,09.3,0000.0,0000.90,0003.98,0000.56
2021-10-30 06:47:00,,0823.7,5.00,0.00,29.2,28.4,00.0,38.2,31.0,09.3,0000.0,0000.93,0005.04,0000.56
2021-10-30 06:48:00,,0823.7,5.01,0.00,29.2,28.4,00.0,38.2,31.0,09.2,0000.0,0000.94,0005.83,0000.56
2021-10-30 06:49:00,,0823.7,4.99,0.00,29.2,28.4,00.0,38.2,30.9,09.2,0000.0,0000.95,0006.45,0000.56
2021-10-30 06:50:00,,0823.7,4.99,0.00,29.2,28.4,00.0,38.2,30.9,09.2,0000.0,0000.98,0007.70,0000.58
2021-10-30 06:51:00,,0823.7,5.00,0.00,29.2,28.3,00.0,38.2,30.9,09.2,0000.0,0001.03,0007.54,0000.60
2021-10-30 06:52:00,,0823.7,5.00,0.00,29.2,28.3,00.0,38.2,30.9,09.2,0000.0,0001.09,0006.82,0000.61
2021-10-30 06:53:00,,0823.7,5.02,0.00,29.2,28.3,00.0,38.2,30.9,09.2,0000.0,0001.14,0007.06,0000.63
2021-10-30 06:54:00,,0823.7,4.99,0.00,29.2,28.3,00.0,38.2,30.9,09.2,0000.0,0001.19,0006.59,0000.63
2021-10-30 06:55:00,,0823.7,5.00,0.00,29.1,28.3,00.0,38.2,30.9,09.3,0000.0,0001.22,0006.73,0000.63
2021-10-30 06:56:00,,0823.7,5.00,0.00,29.1,28.3,00.0,38.2,30.9,09.3,0000.0,0001.22,0006.89,0000.64
2021-10-30 06:57:00,,0823.7,5.00,0.00,29.1,28.3,00.0,38.2,30.9,09.3,0000.0,0001.21,0006.91,0000.65
2021-10-30 06:58:00,,0823.7,5.00,0.00,29.1,28.3,00.0,38.2,30.9,09.4,0000.0,0001.25,0006.42,0000.68
2021-10-30 06:59:00,,0823.7,5.00,0.00,29.1,28.2,00.0,38.2,30.8,09.4,0000.0,0001.32,0005.64,0000.70
